Location: Newark
(52.2090°N, 4.1550°W)
Time: 19:46:53
(UTC+00:00)

Transit 4A - Pass Details

Date: 31 October 2019
Orbit: 868 x 976 km, 66.8° (Epoch: 12 November)

Event Time Altitude Azimuth Distance (km) Brightness Sun altitude
Exits shadow 02:22:49 24° 61° (ENE) 1,854 9.9 -42.4°
Drops below altitude 10° 02:25:19 10° 48° (NE) 2,650 10.9 -42.1°
Sets 02:27:55 0° 42° (NE) 3,580 11.8 -41.8°
